Powrót do katalogu

NOAA 16 DEB

AktywnyPO
NORAD 41661·DEBRIS·🇺🇸 United States

Wystrzelony Sep 21, 2000 z Vandenberg Space Force Base

Loading…

Następne Przeloty (najbliższe 24 godziny)

TLE

ŚwieżeSource: Space-Track

Epoka: Sep 14, 2026, 08:20 UTC

1 41661U 00055PA  26257.34786611  .00003223  00000-0  92674-3 0  9997
2 41661  99.0274 103.8239 0020285 341.2179  18.8260 14.45442349540601

Śledź NOAA 16 DEB w czasie rzeczywistym z AllMySat

Download on the App Store